Date,TemperatureHighF,TemperatureAvgF,TemperatureLowF,DewpointHighF,DewpointAvgF,DewpointLowF,HumidityHigh,HumidityAvg,HumidityLow,PressureMaxIn,PressureMinIn,WindSpeedMaxMPH,WindSpeedAvgMPH,GustSpeedMaxMPH,PrecipitationSumIn
2013-2-1,72.9,49.5,30.4,37.6,29.9,20.7,90,56,14,30.25,30.14,6,1,8,0.00
2013-2-2,76.8,53.4,33.6,40.5,31.2,19.2,88,52,12,30.28,30.13,7,1,9,0.00
2013-2-3,70.3,57.3,47.7,40.1,35.7,26.6,73,48,22,30.18,30.00,5,1,6,0.00
2013-2-4,70.3,54.7,42.6,41.2,39.3,36.9,86,60,30,30.08,29.97,5,1,9,0.00
2013-2-5,73.8,55.6,38.5,43.2,39.5,32.5,94,60,22,30.06,29.94,8,1,10,0.00
2013-2-6,70.5,55.0,42.4,45.0,39.1,34.3,90,59,28,30.07,29.94,12,1,14,0.00
2013-2-7,70.9,53.3,37.0,40.6,35.7,28.9,93,56,22,30.15,29.99,7,1,10,0.00
2013-2-8,67.8,54.5,40.5,34.5,27.0,15.6,77,41,14,29.99,29.81,13,3,18,0.00
2013-2-9,52.2,43.4,34.3,37.6,29.6,21.9,92,61,32,30.05,29.83,14,2,23,0.02
2013-2-10,56.8,41.2,26.8,29.1,23.6,16.5,90,56,21,30.06,29.94,9,1,10,0.00
2013-2-11,49.8,37.3,28.0,36.3,29.4,22.8,96,75,38,30.17,29.97,9,1,23,0.23
2013-2-12,52.0,39.7,29.3,35.2,32.2,28.2,98,77,43,30.28,30.17,7,1,8,0.01
2013-2-13,60.8,42.8,27.9,33.4,27.8,21.4,93,62,22,30.21,30.09,7,1,9,0.00
2013-2-14,66.4,46.7,29.8,33.4,28.6,22.1,90,56,19,30.18,30.04,8,1,12,0.00
2013-2-15,71.2,53.0,37.2,33.3,24.9,12.7,80,42,11,30.27,30.14,13,3,17,0.00
2013-2-16,73.9,62.9,41.7,23.9,10.0,1.2,45,14,6,30.28,30.04,24,6,25,0.00
2013-2-17,73.4,55.8,34.7,24.4,15.7,1.8,59,25,6,30.03,29.88,13,2,17,0.00
2013-2-18,71.1,52.0,34.7,27.5,21.2,9.0,66,36,9,30.09,29.94,5,1,9,0.00
2013-2-19,70.7,55.9,38.7,30.9,19.1,8.6,59,28,9,29.97,29.74,14,3,18,0.00
2013-2-20,52.0,40.7,32.2,37.9,33.2,30.2,97,76,44,29.96,29.73,11,3,19,0.16
2013-2-21,51.4,41.8,31.8,37.4,33.6,30.6,98,75,48,30.05,29.94,8,1,9,0.32
2013-2-22,55.2,44.0,33.3,38.8,33.7,28.8,97,70,40,30.16,30.00,10,2,14,0.00
2013-2-23,64.9,46.1,29.5,35.1,28.3,18.1,92,58,17,30.16,29.86,8,1,10,0.00
2013-2-24,50.7,41.8,32.7,33.4,21.7,6.1,88,51,16,30.10,29.82,20,4,25,0.00
2013-2-25,58.5,42.5,27.5,27.7,20.3,14.5,75,45,21,30.22,30.05,8,1,10,0.00
2013-2-26,64.4,45.4,27.9,29.3,21.8,13.1,87,47,16,30.10,29.96,12,2,15,0.00
2013-2-27,63.7,46.7,29.5,25.0,15.9,4.5,75,36,10,30.22,30.10,10,2,15,0.00
2013-2-28,68.2,48.6,29.3,23.5,16.8,6.3,67,33,10,30.34,30.21,10,2,14,0.00